Time,TemperatureF,DewpointF,PressureIn,WindDirection,WindDirectionDegrees,WindSpeedMPH,WindSpeedGustMPH,Humidity,HourlyPrecipIn,Conditions,Clouds,dailyrainin,SoftwareType,DateUTC
2013-04-17 00:00:00,62.4,55.8,30.17,ESE,121,1.0,1.0,79,0.00,,,0.00,Wunderground v.1.15,2013-04-17 04:00:00,
2013-04-17 00:05:00,62.4,55.8,30.17,South,188,1.0,1.0,79,0.00,,,0.00,Wunderground v.1.15,2013-04-17 04:05:00,
2013-04-17 00:15:00,62.4,55.8,30.17,South,180,0.0,1.0,79,0.00,,,0.00,Wunderground v.1.15,2013-04-17 04:15:00,
2013-04-17 00:20:00,62.6,56.0,30.17,SSW,200,0.0,0.0,79,0.00,,,0.00,Wunderground v.1.15,2013-04-17 04:20:00,
2013-04-17 00:25:00,62.6,56.0,30.17,South,173,0.0,0.0,79,0.00,,,0.00,Wunderground v.1.15,2013-04-17 04:25:00,
2013-04-17 00:30:00,62.6,56.0,30.17,SE,137,0.0,0.0,79,0.00,,,0.00,Wunderground v.1.15,2013-04-17 04:30:00,
2013-04-17 00:35:00,62.5,55.9,30.16,SSE,157,0.0,1.0,79,0.00,,,0.00,Wunderground v.1.15,2013-04-17 04:35:00,
2013-04-17 00:40:00,62.3,56.0,30.16,ESE,114,1.0,1.0,80,0.00,,,0.00,Wunderground v.1.15,2013-04-17 04:40:00,
2013-04-17 00:45:00,62.3,56.0,30.16,SE,129,1.0,1.0,80,0.00,,,0.00,Wunderground v.1.15,2013-04-17 04:45:00,
2013-04-17 00:50:00,62.3,56.0,30.17,SSE,161,1.0,1.0,80,0.00,,,0.00,Wunderground v.1.15,2013-04-17 04:50:00,
2013-04-17 00:55:00,62.2,56.0,30.17,SSE,160,0.0,1.0,80,0.00,,,0.00,Wunderground v.1.15,2013-04-17 04:55:00,
2013-04-17 06:40:00,60.1,55.6,30.18,NNW,341,1.0,1.0,85,0.00,,,0.00,Wunderground v.1.15,2013-04-17 10:40:00,
2013-04-17 06:45:00,60.1,55.6,30.18,NNW,341,1.0,1.0,85,0.00,,,0.00,Wunderground v.1.15,2013-04-17 10:45:00,
2013-04-17 06:50:00,60.2,55.7,30.18,NNW,341,1.0,1.0,85,0.00,,,0.00,Wunderground v.1.15,2013-04-17 10:50:00,
2013-04-17 06:55:00,60.2,55.7,30.18,NNW,341,0.0,1.0,85,0.00,,,0.00,Wunderground v.1.15,2013-04-17 10:55:00,
2013-04-17 07:00:00,60.2,55.7,30.18,NNW,341,0.0,0.0,85,0.00,,,0.00,Wunderground v.1.15,2013-04-17 11:00:00,
2013-04-17 07:05:00,60.1,55.9,30.17,ESE,113,0.0,1.0,86,0.00,,,0.00,Wunderground v.1.15,2013-04-17 11:05:00,
2013-04-17 07:10:00,60.4,55.9,30.18,ESE,105,0.0,0.0,85,0.00,,,0.00,Wunderground v.1.15,2013-04-17 11:10:00,
2013-04-17 07:15:00,60.4,55.9,30.18,WNW,285,0.0,0.0,85,0.00,,,0.00,Wunderground v.1.15,2013-04-17 11:15:00,
2013-04-17 07:20:00,60.2,56.0,30.18,NW,311,0.0,0.0,86,0.00,,,0.00,Wunderground v.1.15,2013-04-17 11:20:00,
2013-04-17 07:25:00,60.5,56.0,30.18,East,99,0.0,0.0,85,0.00,,,0.00,Wunderground v.1.15,2013-04-17 11:25:00,
2013-04-17 08:10:00,58.8,56.5,30.19,ENE,66,0.0,1.0,92,0.06,,,0.10,Wunderground v.1.15,2013-04-17 12:10:00,
2013-04-17 08:15:00,58.7,56.7,30.19,SW,217,1.0,1.0,93,0.04,,,0.10,Wunderground v.1.15,2013-04-17 12:15:00,
2013-04-17 08:20:00,58.7,56.7,30.19,SSE,152,1.0,1.0,93,0.00,,,0.10,Wunderground v.1.15,2013-04-17 12:20:00,
2013-04-17 08:25:00,58.8,56.8,30.19,SE,134,1.0,1.0,93,0.00,,,0.10,Wunderground v.1.15,2013-04-17 12:25:00,
2013-04-17 08:35:00,58.8,56.8,30.18,East,91,2.0,2.0,93,0.00,,,0.10,Wunderground v.1.15,2013-04-17 12:35:00,
2013-04-17 08:45:00,59.1,57.1,30.18,SSE,148,1.0,1.0,93,0.00,,,0.10,Wunderground v.1.15,2013-04-17 12:45:00,
2013-04-17 08:50:00,59.7,57.7,30.18,SSW,212,1.0,1.0,93,0.00,,,0.10,Wunderground v.1.15,2013-04-17 12:50:00,
2013-04-17 09:00:00,61.2,59.2,30.18,SSE,167,0.0,0.0,93,0.00,,,0.10,Wunderground v.1.15,2013-04-17 13:00:00,
2013-04-17 09:05:00,61.5,59.2,30.18,South,169,0.0,4.0,92,0.00,,,0.10,Wunderground v.1.15,2013-04-17 13:05:00,
2013-04-17 09:15:00,62.5,59.5,30.18,East,85,1.0,4.0,90,0.00,,,0.10,Wunderground v.1.15,2013-04-17 13:15:00,
2013-04-17 09:25:00,62.6,58.7,30.18,ESE,104,0.0,4.0,87,0.00,,,0.10,Wunderground v.1.15,2013-04-17 13:25:00,
2013-04-17 09:35:00,63.3,59.7,30.17,ESE,105,0.0,4.0,88,0.00,,,0.10,Wunderground v.1.15,2013-04-17 13:35:00,
2013-04-17 09:40:00,63.5,59.2,30.18,East,82,1.0,1.0,86,0.00,,,0.10,Wunderground v.1.15,2013-04-17 13:40:00,
2013-04-17 09:45:00,64.0,60.1,30.18,North,6,1.0,2.0,87,0.00,,,0.10,Wunderground v.1.15,2013-04-17 13:45:00,
2013-04-17 09:50:00,63.8,60.2,30.17,NW,319,1.0,4.0,88,0.00,,,0.10,Wunderground v.1.15,2013-04-17 13:50:00,
2013-04-17 09:55:00,63.6,59.7,30.17,NW,319,1.0,4.0,87,0.00,,,0.10,Wunderground v.1.15,2013-04-17 13:55:00,
2013-04-17 10:05:00,64.3,59.0,30.16,SE,136,2.0,4.0,83,0.00,,,0.10,Wunderground v.1.15,2013-04-17 14:05:00,
2013-04-17 10:10:00,64.7,59.4,30.16,ESE,108,2.0,4.0,83,0.00,,,0.10,Wunderground v.1.15,2013-04-17 14:10:00,
2013-04-17 10:15:00,65.1,59.8,30.17,East,93,2.0,4.0,83,0.00,,,0.10,Wunderground v.1.15,2013-04-17 14:15:00,
2013-04-17 10:20:00,65.1,59.5,30.17,ESE,116,3.0,3.0,82,0.00,,,0.10,Wunderground v.1.15,2013-04-17 14:20:00,
2013-04-17 10:25:00,65.4,59.1,30.17,ESE,118,2.0,4.0,80,0.00,,,0.10,Wunderground v.1.15,2013-04-17 14:25:00,
2013-04-17 10:30:00,65.4,58.7,30.16,East,80,2.0,2.0,79,0.00,,,0.10,Wunderground v.1.15,2013-04-17 14:30:00,
2013-04-17 10:40:00,65.7,58.7,30.16,SE,138,1.0,4.0,78,0.00,,,0.10,Wunderground v.1.15,2013-04-17 14:40:00,
2013-04-17 10:45:00,66.3,58.9,30.16,SE,145,1.0,4.0,77,0.00,,,0.10,Wunderground v.1.15,2013-04-17 14:45:00,
2013-04-17 10:55:00,67.4,58.8,30.16,SSW,192,1.0,4.0,74,0.00,,,0.10,Wunderground v.1.15,2013-04-17 14:55:00,
2013-04-17 11:05:00,68.0,61.2,30.17,NNW,345,0.0,4.0,79,0.00,,,0.10,Wunderground v.1.15,2013-04-17 15:05:00,
2013-04-17 11:10:00,68.1,61.3,30.16,NE,40,0.0,4.0,79,0.00,,,0.10,Wunderground v.1.15,2013-04-17 15:10:00,
2013-04-17 11:15:00,67.7,60.6,30.17,NE,53,0.0,4.0,78,0.00,,,0.10,Wunderground v.1.15,2013-04-17 15:15:00,
2013-04-17 11:20:00,67.6,61.6,30.17,NE,51,0.0,4.0,81,0.00,,,0.10,Wunderground v.1.15,2013-04-17 15:20:00,
2013-04-17 11:30:00,67.3,60.9,30.17,SW,228,0.0,4.0,80,0.00,,,0.10,Wunderground v.1.15,2013-04-17 15:30:00,
2013-04-17 11:35:00,67.3,61.6,30.16,SW,224,0.0,4.0,82,0.00,,,0.10,Wunderground v.1.15,2013-04-17 15:35:00,
2013-04-17 11:40:00,67.9,62.2,30.17,SW,226,1.0,4.0,82,0.00,,,0.10,Wunderground v.1.15,2013-04-17 15:40:00,
2013-04-17 11:45:00,68.7,62.3,30.16,SW,219,1.0,4.0,80,0.00,,,0.10,Wunderground v.1.15,2013-04-17 15:45:00,
2013-04-17 11:50:00,69.0,62.2,30.16,East,89,1.0,4.0,79,0.00,,,0.10,Wunderground v.1.15,2013-04-17 15:50:00,
2013-04-17 11:55:00,68.9,61.4,30.16,WSW,246,1.0,4.0,77,0.00,,,0.10,Wunderground v.1.15,2013-04-17 15:55:00,
2013-04-17 12:00:00,68.6,61.5,30.16,West,260,1.0,4.0,78,0.00,,,0.10,Wunderground v.1.15,2013-04-17 16:00:00,
2013-04-17 12:10:00,68.5,61.7,30.16,SW,236,0.0,4.0,79,0.00,,,0.10,Wunderground v.1.15,2013-04-17 16:10:00,
2013-04-17 12:20:00,69.2,61.3,30.15,West,262,1.0,1.0,76,0.00,,,0.10,Wunderground v.1.15,2013-04-17 16:20:00,
2013-04-17 12:25:00,69.4,61.1,30.15,ESE,108,1.0,4.0,75,0.00,,,0.10,Wunderground v.1.15,2013-04-17 16:25:00,
2013-04-17 12:30:00,69.2,60.6,30.15,NNE,25,1.0,4.0,74,0.00,,,0.10,Wunderground v.1.15,2013-04-17 16:30:00,
2013-04-17 12:35:00,69.1,60.8,30.14,North,351,1.0,4.0,75,0.00,,,0.10,Wunderground v.1.15,2013-04-17 16:35:00,
2013-04-17 12:40:00,69.7,61.4,30.14,North,356,1.0,4.0,75,0.00,,,0.10,Wunderground v.1.15,2013-04-17 16:40:00,
2013-04-17 12:45:00,70.7,62.0,30.14,NE,37,1.0,4.0,74,0.00,,,0.10,Wunderground v.1.15,2013-04-17 16:45:00,
2013-04-17 12:50:00,71.3,61.8,30.14,ENE,66,2.0,4.0,72,0.00,,,0.10,Wunderground v.1.15,2013-04-17 16:50:00,
2013-04-17 12:55:00,71.1,61.6,30.13,SSW,207,2.0,4.0,72,0.00,,,0.10,Wunderground v.1.15,2013-04-17 16:55:00,
2013-04-17 13:00:00,70.6,60.7,30.13,East,99,3.0,3.0,71,0.00,,,0.10,Wunderground v.1.15,2013-04-17 17:00:00,
2013-04-17 13:05:00,70.1,60.7,30.13,ENE,65,3.0,4.0,72,0.00,,,0.10,Wunderground v.1.15,2013-04-17 17:05:00,
2013-04-17 13:10:00,69.7,59.5,30.13,East,79,3.0,5.0,70,0.00,,,0.10,Wunderground v.1.15,2013-04-17 17:10:00,
2013-04-17 13:15:00,69.5,60.1,30.13,East,82,4.0,5.0,72,0.00,,,0.10,Wunderground v.1.15,2013-04-17 17:15:00,
2013-04-17 13:25:00,70.5,60.6,30.12,NW,315,2.0,4.0,71,0.00,,,0.10,Wunderground v.1.15,2013-04-17 17:25:00,
2013-04-17 13:30:00,71.1,61.2,30.12,WSW,250,1.0,4.0,71,0.00,,,0.10,Wunderground v.1.15,2013-04-17 17:30:00,
2013-04-17 13:35:00,71.3,61.0,30.13,SW,226,1.0,4.0,70,0.00,,,0.10,Wunderground v.1.15,2013-04-17 17:35:00,
2013-04-17 13:40:00,71.0,60.7,30.12,SW,222,1.0,1.0,70,0.00,,,0.10,Wunderground v.1.15,2013-04-17 17:40:00,
2013-04-17 13:45:00,70.8,60.5,30.12,SSE,158,1.0,4.0,70,0.00,,,0.10,Wunderground v.1.15,2013-04-17 17:45:00,
2013-04-17 13:50:00,70.6,60.7,30.11,WSW,245,1.0,4.0,71,0.00,,,0.10,Wunderground v.1.15,2013-04-17 17:50:00,
2013-04-17 13:55:00,70.1,60.3,30.11,SE,133,2.0,4.0,71,0.00,,,0.10,Wunderground v.1.15,2013-04-17 17:55:00,
2013-04-17 14:00:00,70.1,59.9,30.11,East,94,2.0,4.0,70,0.00,,,0.10,Wunderground v.1.15,2013-04-17 18:00:00,
2013-04-17 14:05:00,69.6,59.8,30.12,SSE,150,2.0,4.0,71,0.00,,,0.10,Wunderground v.1.15,2013-04-17 18:05:00,
2013-04-17 14:10:00,69.0,58.8,30.12,ESE,119,2.0,2.0,70,0.00,,,0.10,Wunderground v.1.15,2013-04-17 18:10:00,
2013-04-17 14:15:00,68.1,57.9,30.13,West,269,1.0,4.0,70,0.00,,,0.10,Wunderground v.1.15,2013-04-17 18:15:00,
2013-04-17 14:20:00,67.1,57.4,30.14,SSW,212,1.0,4.0,71,0.00,,,0.10,Wunderground v.1.15,2013-04-17 18:20:00,
2013-04-17 14:25:00,66.3,57.0,30.14,WSW,239,2.0,4.0,72,0.00,,,0.10,Wunderground v.1.15,2013-04-17 18:25:00,
2013-04-17 14:30:00,65.5,57.0,30.14,SSE,162,2.0,4.0,74,0.00,,,0.10,Wunderground v.1.15,2013-04-17 18:30:00,
2013-04-17 14:35:00,64.3,58.0,30.14,West,273,2.0,4.0,80,0.00,,,0.11,Wunderground v.1.15,2013-04-17 18:35:00,
2013-04-17 14:40:00,63.1,57.9,30.14,North,360,2.0,2.0,83,0.00,,,0.11,Wunderground v.1.15,2013-04-17 18:40:00,
2013-04-17 14:45:00,62.4,58.2,30.15,West,259,0.0,4.0,86,0.22,,,0.12,Wunderground v.1.15,2013-04-17 18:45:00,
2013-04-17 14:50:00,61.9,58.3,30.15,West,266,0.0,4.0,88,0.12,,,0.13,Wunderground v.1.15,2013-04-17 18:50:00,
2013-04-17 14:55:00,61.3,58.0,30.15,SSW,204,1.0,4.0,89,0.06,,,0.13,Wunderground v.1.15,2013-04-17 18:55:00,
2013-04-17 15:00:00,61.1,58.5,30.15,SSW,205,0.0,4.0,91,0.05,,,0.14,Wunderground v.1.15,2013-04-17 19:00:00,
2013-04-17 15:05:00,60.9,58.3,30.15,ESE,107,0.0,4.0,91,0.14,,,0.15,Wunderground v.1.15,2013-04-17 19:05:00,
2013-04-17 15:15:00,60.9,58.9,30.14,ENE,62,0.0,4.0,93,0.08,,,0.17,Wunderground v.1.15,2013-04-17 19:15:00,
2013-04-17 15:20:00,61.1,59.1,30.14,ENE,77,0.0,4.0,93,0.08,,,0.17,Wunderground v.1.15,2013-04-17 19:20:00,
2013-04-17 15:25:00,61.4,59.4,30.14,ENE,77,0.0,4.0,93,0.05,,,0.17,Wunderground v.1.15,2013-04-17 19:25:00,
2013-04-17 15:30:00,61.5,59.2,30.14,ENE,77,0.0,4.0,92,0.04,,,0.17,Wunderground v.1.15,2013-04-17 19:30:00,
2013-04-17 15:35:00,61.6,59.3,30.13,SE,132,0.0,4.0,92,0.00,,,0.17,Wunderground v.1.15,2013-04-17 19:35:00,
2013-04-17 15:45:00,61.8,59.1,30.12,ENE,65,0.0,4.0,91,0.00,,,0.17,Wunderground v.1.15,2013-04-17 19:45:00,
2013-04-17 15:50:00,62.1,59.4,30.12,SE,125,1.0,1.0,91,0.00,,,0.17,Wunderground v.1.15,2013-04-17 19:50:00,
2013-04-17 15:55:00,62.5,60.1,30.12,NW,305,0.0,4.0,92,0.00,,,0.17,Wunderground v.1.15,2013-04-17 19:55:00,
2013-04-17 16:00:00,62.6,59.6,30.13,WSW,255,0.0,4.0,90,0.00,,,0.17,Wunderground v.1.15,2013-04-17 20:00:00,
2013-04-17 16:10:00,62.5,60.1,30.13,WSW,250,1.0,1.0,92,0.00,,,0.17,Wunderground v.1.15,2013-04-17 20:10:00,
2013-04-17 16:15:00,63.0,60.6,30.13,SE,141,0.0,4.0,92,0.00,,,0.17,Wunderground v.1.15,2013-04-17 20:15:00,
2013-04-17 16:20:00,63.3,59.0,30.13,ESE,112,1.0,4.0,86,0.00,,,0.17,Wunderground v.1.15,2013-04-17 20:20:00,
2013-04-17 16:25:00,63.6,59.3,30.12,South,169,2.0,4.0,86,0.00,,,0.17,Wunderground v.1.15,2013-04-17 20:25:00,
2013-04-17 16:30:00,64.0,59.4,30.12,SSE,149,2.0,2.0,85,0.00,,,0.17,Wunderground v.1.15,2013-04-17 20:30:00,
2013-04-17 16:35:00,64.4,59.5,30.11,South,177,2.0,4.0,84,0.00,,,0.17,Wunderground v.1.15,2013-04-17 20:35:00,
2013-04-17 16:40:00,64.8,59.9,30.11,SE,133,1.0,4.0,84,0.00,,,0.17,Wunderground v.1.15,2013-04-17 20:40:00,
2013-04-17 16:45:00,64.9,58.9,30.10,SE,129,2.0,4.0,81,0.00,,,0.17,Wunderground v.1.15,2013-04-17 20:45:00,
2013-04-17 16:55:00,65.0,58.7,30.10,SSW,197,2.0,4.0,80,0.00,,,0.17,Wunderground v.1.15,2013-04-17 20:55:00,
2013-04-17 17:00:00,65.0,59.0,30.09,ESE,108,3.0,4.0,81,0.00,,,0.17,Wunderground v.1.15,2013-04-17 21:00:00,
2013-04-17 17:05:00,65.0,58.7,30.09,ESE,108,4.0,4.0,80,0.00,,,0.17,Wunderground v.1.15,2013-04-17 21:05:00,
2013-04-17 17:10:00,65.2,58.9,30.09,SSE,165,4.0,4.0,80,0.00,,,0.17,Wunderground v.1.15,2013-04-17 21:10:00,
2013-04-17 17:15:00,65.2,59.2,30.09,SE,136,4.0,4.0,81,0.00,,,0.17,Wunderground v.1.15,2013-04-17 21:15:00,
2013-04-17 17:20:00,65.0,59.4,30.09,East,86,4.0,5.0,82,0.00,,,0.17,Wunderground v.1.15,2013-04-17 21:20:00,
2013-04-17 17:25:00,64.8,58.8,30.08,ESE,102,5.0,5.0,81,0.00,,,0.17,Wunderground v.1.15,2013-04-17 21:25:00,
2013-04-17 17:30:00,64.6,59.3,30.08,SE,139,4.0,5.0,83,0.00,,,0.17,Wunderground v.1.15,2013-04-17 21:30:00,
2013-04-17 17:35:00,64.4,59.1,30.09,SE,134,3.0,5.0,83,0.00,,,0.17,Wunderground v.1.15,2013-04-17 21:35:00,
2013-04-17 17:45:00,64.3,59.4,30.09,East,86,2.0,4.0,84,0.00,,,0.17,Wunderground v.1.15,2013-04-17 21:45:00,
2013-04-17 17:50:00,64.1,58.5,30.09,East,101,3.0,3.0,82,0.00,,,0.17,Wunderground v.1.15,2013-04-17 21:50:00,
2013-04-17 17:55:00,64.0,58.4,30.09,ESE,102,3.0,4.0,82,0.00,,,0.17,Wunderground v.1.15,2013-04-17 21:55:00,
2013-04-17 18:00:00,64.2,58.6,30.09,South,177,2.0,4.0,82,0.00,,,0.17,Wunderground v.1.15,2013-04-17 22:00:00,
2013-04-17 18:05:00,64.3,58.0,30.08,East,96,1.0,4.0,80,0.00,,,0.17,Wunderground v.1.15,2013-04-17 22:05:00,
2013-04-17 18:10:00,64.4,58.4,30.09,East,81,1.0,4.0,81,0.00,,,0.17,Wunderground v.1.15,2013-04-17 22:10:00,
2013-04-17 18:15:00,64.3,58.0,30.09,ESE,113,2.0,4.0,80,0.00,,,0.17,Wunderground v.1.15,2013-04-17 22:15:00,
2013-04-17 18:25:00,64.2,58.2,30.08,ESE,112,2.0,4.0,81,0.00,,,0.17,Wunderground v.1.15,2013-04-17 22:25:00,
2013-04-17 18:35:00,63.8,58.5,30.08,ESE,110,3.0,5.0,83,0.00,,,0.17,Wunderground v.1.15,2013-04-17 22:35:00,
2013-04-17 18:40:00,63.4,58.1,30.08,ESE,108,4.0,5.0,83,0.00,,,0.17,Wunderground v.1.15,2013-04-17 22:40:00,
2013-04-17 18:50:00,62.9,58.0,30.07,ESE,121,4.0,4.0,84,0.00,,,0.17,Wunderground v.1.15,2013-04-17 22:50:00,
2013-04-17 18:55:00,62.7,57.8,30.07,ESE,117,4.0,5.0,84,0.00,,,0.17,Wunderground v.1.15,2013-04-17 22:55:00,
2013-04-17 19:00:00,62.5,57.6,30.08,SE,125,4.0,5.0,84,0.00,,,0.17,Wunderground v.1.15,2013-04-17 23:00:00,
2013-04-17 19:10:00,62.3,57.7,30.08,SE,129,3.0,4.0,85,0.00,,,0.17,Wunderground v.1.15,2013-04-17 23:10:00,
2013-04-17 19:15:00,62.2,57.6,30.08,East,100,3.0,4.0,85,0.00,,,0.17,Wunderground v.1.15,2013-04-17 23:15:00,
2013-04-17 19:25:00,62.0,57.4,30.08,SE,145,2.0,4.0,85,0.00,,,0.17,Wunderground v.1.15,2013-04-17 23:25:00,
2013-04-17 19:30:00,61.9,57.3,30.08,SE,129,3.0,3.0,85,0.00,,,0.17,Wunderground v.1.15,2013-04-17 23:30:00,
2013-04-17 19:35:00,61.8,57.2,30.08,South,184,3.0,4.0,85,0.00,,,0.17,Wunderground v.1.15,2013-04-17 23:35:00,
2013-04-17 19:40:00,61.8,57.2,30.08,SE,133,3.0,3.0,85,0.00,,,0.17,Wunderground v.1.15,2013-04-17 23:40:00,
2013-04-17 19:45:00,61.6,57.4,30.08,ESE,122,3.0,6.0,86,0.00,,,0.17,Wunderground v.1.15,2013-04-17 23:45:00,
2013-04-17 19:50:00,61.6,57.0,30.07,ESE,119,3.0,4.0,85,0.00,,,0.17,Wunderground v.1.15,2013-04-17 23:50:00,
2013-04-17 19:55:00,61.6,57.0,30.07,ESE,119,4.0,5.0,85,0.00,,,0.17,Wunderground v.1.15,2013-04-17 23:55:00,
2013-04-17 20:05:00,61.5,56.9,30.08,SE,138,4.0,4.0,85,0.00,,,0.17,Wunderground v.1.15,2013-04-18 00:05:00,
2013-04-17 20:10:00,61.4,57.2,30.08,SE,136,4.0,4.0,86,0.00,,,0.17,Wunderground v.1.15,2013-04-18 00:10:00,
2013-04-17 20:15:00,61.3,57.1,30.09,ESE,110,4.0,4.0,86,0.00,,,0.17,Wunderground v.1.15,2013-04-18 00:15:00,
2013-04-17 20:20:00,61.3,57.1,30.09,East,84,4.0,4.0,86,0.00,,,0.17,Wunderground v.1.15,2013-04-18 00:20:00,
2013-04-17 20:30:00,61.2,57.0,30.09,East,99,3.0,4.0,86,0.00,,,0.17,Wunderground v.1.15,2013-04-18 00:30:00,
2013-04-17 20:35:00,61.3,56.8,30.09,ESE,107,3.0,4.0,85,0.00,,,0.17,Wunderground v.1.15,2013-04-18 00:35:00,
2013-04-17 20:40:00,61.3,56.8,30.09,SE,145,3.0,4.0,85,0.00,,,0.17,Wunderground v.1.15,2013-04-18 00:40:00,
2013-04-17 20:45:00,61.1,56.9,30.09,SE,136,3.0,4.0,86,0.00,,,0.17,Wunderground v.1.15,2013-04-18 00:45:00,
2013-04-17 20:50:00,61.0,56.8,30.09,South,171,2.0,4.0,86,0.00,,,0.17,Wunderground v.1.15,2013-04-18 00:50:00,
2013-04-17 20:55:00,60.9,56.7,30.09,ESE,105,2.0,4.0,86,0.00,,,0.17,Wunderground v.1.15,2013-04-18 00:55:00,
2013-04-17 21:05:00,61.2,56.7,30.09,East,81,3.0,4.0,85,0.00,,,0.17,Wunderground v.1.15,2013-04-18 01:05:00,
2013-04-17 21:10:00,61.3,56.4,30.09,ESE,110,3.0,4.0,84,0.00,,,0.17,Wunderground v.1.15,2013-04-18 01:10:00,
2013-04-17 21:15:00,61.1,56.6,30.09,South,172,2.0,4.0,85,0.00,,,0.17,Wunderground v.1.15,2013-04-18 01:15:00,
2013-04-17 21:20:00,60.9,56.7,30.09,SE,124,2.0,2.0,86,0.00,,,0.17,Wunderground v.1.15,2013-04-18 01:20:00,
2013-04-17 21:25:00,60.5,56.6,30.10,SSE,157,1.0,4.0,87,0.00,,,0.17,Wunderground v.1.15,2013-04-18 01:25:00,
2013-04-17 21:30:00,60.4,56.5,30.10,SE,125,1.0,4.0,87,0.00,,,0.17,Wunderground v.1.15,2013-04-18 01:30:00,
2013-04-17 21:35:00,60.2,56.3,30.10,SE,146,1.0,4.0,87,0.00,,,0.17,Wunderground v.1.15,2013-04-18 01:35:00,
2013-04-17 21:40:00,60.1,56.5,30.10,South,169,1.0,1.0,88,0.00,,,0.17,Wunderground v.1.15,2013-04-18 01:40:00,
2013-04-17 21:45:00,59.9,56.3,30.10,South,169,1.0,4.0,88,0.00,,,0.17,Wunderground v.1.15,2013-04-18 01:45:00,
2013-04-17 21:50:00,59.7,56.5,30.10,SE,133,0.0,4.0,89,0.00,,,0.17,Wunderground v.1.15,2013-04-18 01:50:00,
2013-04-17 21:55:00,59.5,56.3,30.10,SE,132,1.0,4.0,89,0.00,,,0.17,Wunderground v.1.15,2013-04-18 01:55:00,
2013-04-17 22:00:00,59.2,56.3,30.09,SSE,152,1.0,4.0,90,0.00,,,0.17,Wunderground v.1.15,2013-04-18 02:00:00,
2013-04-17 22:10:00,59.4,55.8,30.09,ESE,113,1.0,1.0,88,0.00,,,0.17,Wunderground v.1.15,2013-04-18 02:10:00,
2013-04-17 22:15:00,59.4,55.8,30.09,ESE,121,1.0,4.0,88,0.00,,,0.17,Wunderground v.1.15,2013-04-18 02:15:00,
2013-04-17 22:20:00,59.6,56.0,30.09,ENE,75,1.0,4.0,88,0.00,,,0.17,Wunderground v.1.15,2013-04-18 02:20:00,
2013-04-17 22:25:00,60.5,55.6,30.08,East,93,3.0,5.0,84,0.00,,,0.17,Wunderground v.1.15,2013-04-18 02:25:00,
2013-04-17 22:30:00,61.2,55.7,30.08,East,93,4.0,4.0,82,0.00,,,0.17,Wunderground v.1.15,2013-04-18 02:30:00,
2013-04-17 22:35:00,61.4,55.5,30.08,ESE,110,3.0,4.0,81,0.00,,,0.17,Wunderground v.1.15,2013-04-18 02:35:00,
2013-04-17 22:40:00,61.5,55.3,30.08,ESE,117,3.0,4.0,80,0.00,,,0.17,Wunderground v.1.15,2013-04-18 02:40:00,
2013-04-17 22:45:00,61.6,55.7,30.08,East,100,3.0,4.0,81,0.00,,,0.17,Wunderground v.1.15,2013-04-18 02:45:00,
2013-04-17 22:55:00,61.5,55.3,30.08,SE,138,3.0,4.0,80,0.00,,,0.17,Wunderground v.1.15,2013-04-18 02:55:00,
2013-04-17 23:00:00,61.3,55.4,30.08,East,96,2.0,4.0,81,0.00,,,0.17,Wunderground v.1.15,2013-04-18 03:00:00,
2013-04-17 23:05:00,61.2,55.3,30.07,ESE,112,2.0,4.0,81,0.00,,,0.17,Wunderground v.1.15,2013-04-18 03:05:00,
2013-04-17 23:10:00,61.3,55.1,30.08,ESE,102,2.0,4.0,80,0.00,,,0.17,Wunderground v.1.15,2013-04-18 03:10:00,
2013-04-17 23:15:00,61.4,55.5,30.08,ESE,115,1.0,4.0,81,0.00,,,0.17,Wunderground v.1.15,2013-04-18 03:15:00,
2013-04-17 23:20:00,61.0,55.5,30.08,ESE,114,0.0,4.0,82,0.00,,,0.17,Wunderground v.1.15,2013-04-18 03:20:00,
2013-04-17 23:25:00,60.7,55.5,30.08,ESE,114,0.0,4.0,83,0.00,,,0.17,Wunderground v.1.15,2013-04-18 03:25:00,
2013-04-17 23:30:00,60.3,55.1,30.08,ESE,114,0.0,4.0,83,0.00,,,0.17,Wunderground v.1.15,2013-04-18 03:30:00,
2013-04-17 23:35:00,60.2,55.0,30.08,ESE,110,0.0,4.0,83,0.00,,,0.17,Wunderground v.1.15,2013-04-18 03:35:00,
2013-04-17 23:45:00,60.0,55.2,30.07,ESE,112,0.0,4.0,84,0.00,,,0.17,Wunderground v.1.15,2013-04-18 03:45:00,
2013-04-17 23:55:00,59.6,55.1,30.07,ESE,112,0.0,4.0,85,0.00,,,0.17,Wunderground v.1.15,2013-04-18 03:55:00,